Flag for U.S.A. Weather past 2 weeks in Escondido, California, U.S.A.

Now
62 °F

Low clouds.


Feels Like: 62 °F
Forecast: 63 / 75 °F
Wind: No wind

Location: Ramona Airport

Current Time: Aug 20, 2014 at 4:46:41 AM

Latest Report: Aug 20, 2014 at 3:53 AM


Visibility: 10 mi

Pressure: 29.87 "Hg

Humidity: 86%

Dew point: 58 °F

Location of EscondidoLocation

Historic Weather in Escondido — Graph

°F

Escondido temperature yesterday

Maximum temperature yesterday: 83 °F (at 1:53 PM)
Minimum temperature yesterday: 60 °F (at 11:53 PM)
Average temperature yesterday: 69 °F

Past Weeks' High & Low Weather Summary

 TemperatureHumidityPressure
High94 °F (Aug 15, 2:53 PM)100% (Aug 6, 5:58 AM)30.06 "Hg (Aug 6, 5:58 AM)
Low52 °F (Aug 5, 4:53 AM)18% (Aug 5, 9:53 AM)29.78 "Hg (Aug 18, 4:53 PM)
Average72 °F63%29.93 "Hg
* Reported Aug 5 3:53 AM — Aug 20 3:53 AM, Escondido, Weather by CustomWeather, © 2014

Note: Actual official high and low records may vary slightly from our data, if they occured in-between our weather recording intervals... More about our weather records

Advertising

Escondido weather history for previous 24 hours

 ConditionsComfort  
Time TempWeatherWind HumidityBarometerVisibility
3:53 AM
Aug 20
62 °FLow clouds.No wind86%29.87 "Hg10 mi
2:53 AM62 °FLow clouds.3 mph86%29.87 "Hg8 mi
1:53 AM62 °FLow clouds.No wind86%29.87 "Hg10 mi
12:53 AM59 °FPassing clouds.3 mph90%29.88 "Hg10 mi
11:53 PM
Aug 19
60 °FClear.3 mph90%29.87 "Hg10 mi
10:53 PM61 °FClear.7 mph90%29.86 "Hg10 mi
9:53 PM62 °FClear.6 mph83%29.87 "Hg10 mi
8:53 PM64 °FClear.6 mph78%29.87 "Hg10 mi
7:53 PM66 °FSunny.5 mph75%29.85 "Hg10 mi
6:53 PM71 °FSunny.10 mph63%29.84 "Hg10 mi
5:53 PM75 °FSunny.10 mph55%29.84 "Hg10 mi
4:53 PM78 °FSunny.13 mph45%29.83 "Hg10 mi
3:53 PM80 °FSunny.13 mph42%29.83 "Hg10 mi
2:53 PM81 °FSunny.14 mph41%29.84 "Hg10 mi
1:53 PM83 °FSunny.15 mph40%29.85 "Hg10 mi
12:53 PM82 °FSunny.6 mph37%29.86 "Hg10 mi
11:53 AM80 °FSunny.8 mph39%29.88 "Hg10 mi
10:53 AM79 °FSunny.3 mph48%29.89 "Hg10 mi
9:53 AM73 °FSunny.No wind59%29.88 "Hg10 mi
8:53 AM67 °FScattered clouds.3 mph73%29.89 "Hg8 mi
7:53 AM64 °FLow clouds.No wind84%29.88 "Hg6 mi
6:53 AM63 °FFog.No wind87%29.87 "Hg5 mi
5:53 AM63 °FFog.3 mph90%29.85 "Hg5 mi
4:53 AM63 °FFog.3 mph90%29.85 "Hg5 mi
Weather by CustomWeather, © 2014

See weather overviewHow to use our weather pages